TimeEDT,TemperatureF,Dew PointF,Humidity,Sea Level PressureIn,VisibilityMPH,Wind Direction,Wind SpeedMPH,Gust SpeedMPH,PrecipitationIn,Events,Conditions,WindDirDegrees,DateUTC
12:35 AM,69.8,59.0,68,30.18,10.0,ENE,6.9,-,N/A,,Overcast,60,2013-07-13 04:35:00
12:52 AM,68.0,60.1,76,30.18,10.0,NE,4.6,-,N/A,,Overcast,40,2013-07-13 04:52:00
1:52 AM,68.0,61.0,78,30.18,10.0,NE,4.6,-,N/A,,Overcast,40,2013-07-13 05:52:00
2:25 AM,68.0,62.6,83,30.19,10.0,Calm,Calm,-,N/A,,Overcast,0,2013-07-13 06:25:00
2:52 AM,69.1,62.1,78,30.18,10.0,NE,3.5,-,N/A,,Overcast,50,2013-07-13 06:52:00
3:25 AM,66.2,62.6,88,30.20,2.5,Calm,Calm,-,0.01,Rain,Light Rain,0,2013-07-13 07:25:00
3:42 AM,66.2,64.4,94,30.20,5.0,NNE,3.5,-,0.01,Rain,Light Rain,30,2013-07-13 07:42:00
3:52 AM,66.0,64.0,93,30.20,10.0,Calm,Calm,-,0.01,,Overcast,0,2013-07-13 07:52:00
4:52 AM,66.0,64.0,93,30.21,10.0,NE,4.6,-,N/A,,Overcast,40,2013-07-13 08:52:00
5:22 AM,66.2,64.4,94,30.22,10.0,NNE,6.9,-,N/A,,Overcast,30,2013-07-13 09:22:00
5:52 AM,66.9,64.0,90,30.23,10.0,NNE,4.6,-,N/A,,Overcast,30,2013-07-13 09:52:00
6:52 AM,66.0,64.0,93,30.25,9.0,NNE,5.8,-,0.00,,Overcast,30,2013-07-13 10:52:00
7:52 AM,66.9,64.0,90,30.26,7.0,NNE,4.6,-,0.00,Rain,Light Rain,30,2013-07-13 11:52:00
8:52 AM,69.1,64.9,87,30.27,10.0,ENE,5.8,-,0.00,,Overcast,70,2013-07-13 12:52:00
9:52 AM,71.1,66.0,84,30.27,10.0,NE,6.9,-,N/A,,Overcast,50,2013-07-13 13:52:00
10:02 AM,71.6,66.2,83,30.28,10.0,ENE,6.9,-,N/A,,Overcast,60,2013-07-13 14:02:00
10:52 AM,73.0,66.9,81,30.29,10.0,ENE,4.6,-,N/A,,Overcast,70,2013-07-13 14:52:00
11:52 AM,73.0,68.0,84,30.28,10.0,ENE,4.6,-,0.01,,Overcast,70,2013-07-13 15:52:00
12:52 PM,75.9,69.1,79,30.29,10.0,North,4.6,-,N/A,,Overcast,10,2013-07-13 16:52:00
1:52 PM,77.0,70.0,79,30.29,10.0,Calm,Calm,-,N/A,,Overcast,0,2013-07-13 17:52:00
2:00 PM,77.0,69.8,78,30.29,10.0,Variable,3.5,-,N/A,,Overcast,0,2013-07-13 18:00:00
2:52 PM,78.1,70.0,76,30.28,10.0,SE,4.6,-,N/A,,Overcast,130,2013-07-13 18:52:00
3:13 PM,80.6,71.6,74,30.28,10.0,SE,4.6,-,N/A,,Overcast,140,2013-07-13 19:13:00
3:40 PM,78.8,71.6,78,30.28,9.0,Variable,3.5,-,N/A,,Overcast,0,2013-07-13 19:40:00
3:52 PM,77.0,72.0,84,30.28,2.0,SSE,4.6,-,0.01,Rain,Light Rain,160,2013-07-13 19:52:00
3:59 PM,75.2,73.4,94,30.28,2.5,Variable,3.5,-,0.01,Rain,Light Rain,0,2013-07-13 19:59:00
4:11 PM,77.0,73.4,89,30.28,5.0,SSE,4.6,-,0.01,Rain,Light Rain,150,2013-07-13 20:11:00
4:19 PM,77.0,73.4,89,30.28,10.0,Calm,Calm,-,0.01,,Overcast,0,2013-07-13 20:19:00
4:52 PM,78.1,72.0,81,30.27,10.0,SE,3.5,-,0.01,,Overcast,140,2013-07-13 20:52:00
5:52 PM,79.0,71.1,77,30.27,10.0,Calm,Calm,-,N/A,,Mostly Cloudy,0,2013-07-13 21:52:00
6:11 PM,78.8,71.6,78,30.28,10.0,Calm,Calm,-,N/A,,Overcast,0,2013-07-13 22:11:00
6:52 PM,79.0,73.0,82,30.27,10.0,Calm,Calm,-,0.00,,Overcast,0,2013-07-13 22:52:00
7:52 PM,78.1,73.0,84,30.29,10.0,Calm,Calm,-,N/A,,Overcast,0,2013-07-13 23:52:00
8:35 PM,75.2,73.4,94,30.29,4.0,Calm,Calm,-,0.01,Rain,Light Rain,0,2013-07-14 00:35:00
8:45 PM,75.2,73.4,94,30.29,6.0,Calm,Calm,-,0.01,Rain,Light Rain,0,2013-07-14 00:45:00
8:52 PM,75.9,73.9,94,30.29,10.0,Calm,Calm,-,0.01,,Overcast,0,2013-07-14 00:52:00
9:07 PM,75.2,73.4,94,30.30,10.0,Calm,Calm,-,0.00,,Overcast,0,2013-07-14 01:07:00
9:17 PM,75.2,73.4,94,30.30,10.0,Calm,Calm,-,0.00,Rain,Light Rain,0,2013-07-14 01:17:00
9:26 PM,75.2,73.4,94,30.30,10.0,Calm,Calm,-,0.00,,Overcast,0,2013-07-14 01:26:00
9:52 PM,75.0,73.0,94,30.30,10.0,SSE,3.5,-,0.00,,Overcast,160,2013-07-14 01:52:00
9:59 PM,75.2,73.4,94,30.30,10.0,South,3.5,-,N/A,,Overcast,170,2013-07-14 01:59:00
10:09 PM,75.2,73.4,94,30.30,10.0,Calm,Calm,-,N/A,,Overcast,0,2013-07-14 02:09:00
10:52 PM,75.0,73.0,94,30.30,10.0,SSW,3.5,-,N/A,,Overcast,200,2013-07-14 02:52:00
11:52 PM,75.0,73.0,94,30.31,9.0,Calm,Calm,-,N/A,,Overcast,0,2013-07-14 03:52:00